Home   Weather   Washington DC   Past weeks
Flag for USA

Past Weather in Washington DC, USA — Yesterday and Last 2 Weeks

Now
50 °F

Overcast.


Feels Like: 46 °F
Forecast: 45 / 38 °F
Wind: 10 mph from North

Location: Reagan National Airport

Current Time: Feb 22, 2019 at 1:23:47 am

Latest Report: Feb 22, 2019 at 12:52 am


Visibility: 10 mi

Pressure: 30.22 "Hg

Humidity: 39%

Dew Point: 26 °F

Location of Washington DCLocation

Past Weather in Washington DC — Graph

°F

Washington DC Temperature Yesterday

Maximum temperature yesterday: 59 °F (at 4:52 pm)
Minimum temperature yesterday: 34 °F (at 12:28 am)
Average temperature yesterday: 44 °F

High & Low Weather Summary for the Past Weeks

 TemperatureHumidityPressure
High65 °F (Feb 15, 1:52 pm)96% (Feb 8, 12:43 am)30.78 "Hg (Feb 8, 12:43 am)
Low27 °F (Feb 10, 5:52 am)21% (Feb 15, 11:52 pm)29.65 "Hg (Feb 15, 2:52 pm)
Average41 °F65%30.16 "Hg
* Reported Feb 6 11:18 pm — Feb 21 11:52 pm, Washington DC. Weather by CustomWeather, © 2019

Note: Actual official high and low records may vary slightly from our data, if they occured in-between our weather recording intervals... More about our weather records

Advertising

Washington DC Weather History for the Previous 24 Hours

Scroll right to see more
 ConditionsComfort  
Time TempWeatherWind HumidityBarometerVisibility
11:52 pm
Thu, Feb 21
52 °FOvercast.5 mph35%30.22 "Hg10 mi
10:52 pm49 °FOvercast.8 mph46%30.21 "Hg10 mi
9:52 pm51 °FPassing clouds.8 mph41%30.18 "Hg10 mi
8:52 pm52 °FPassing clouds.10 mph40%30.17 "Hg10 mi
7:52 pm56 °FPassing clouds.No wind29%30.15 "Hg10 mi
6:52 pm56 °FPassing clouds.5 mph30%30.13 "Hg10 mi
5:52 pm57 °FPassing clouds.8 mph32%30.09 "Hg10 mi
4:52 pm59 °FPartly sunny.5 mph35%30.06 "Hg10 mi
3:52 pm58 °FScattered clouds.6 mph43%30.05 "Hg10 mi
2:52 pm58 °FPartly sunny.6 mph46%30.05 "Hg10 mi
1:52 pm55 °FPartly sunny.3 mph55%30.05 "Hg10 mi
11:52 am43 °FOvercast.No wind76%30.07 "Hg10 mi
10:52 am40 °FOvercast.3 mph83%30.08 "Hg10 mi
9:52 am39 °FPartly sunny.3 mph82%30.06 "Hg9 mi
8:52 am37 °FBroken clouds.No wind86%30.05 "Hg9 mi
7:52 am36 °FMore clouds than sun.7 mph85%30.03 "Hg10 mi
7:37 am36 °FMore clouds than sun.3 mph85%30.02 "Hg9 mi
6:52 am36 °FLow clouds.3 mph85%30.02 "Hg9 mi
5:52 am35 °FLow clouds.No wind85%30.00 "Hg9 mi
4:52 am35 °FMostly cloudy.5 mph88%30.00 "Hg8 mi
3:52 am35 °FFog.5 mph88%30.00 "Hg4 mi
3:01 am35 °FFog.5 mph88%30.00 "Hg5 mi
1:52 am35 °FLow clouds.No wind88%30.01 "Hg9 mi
1:19 am35 °FLow clouds.5 mph88%30.03 "Hg8 mi
Weather by CustomWeather, © 2019

See weather overview